WetterOnline ( https://www.wetteronline.de )

Wetter aktuell Flesland

Aktuelles Wetter: Bergen/Flesland (50m)

6-stündlich | Neueste Meldungen
Ortszeit Temperatur Wetter
Do, 29.02. 13:00 7.0° C Nebel
Do, 29.02. 7:00 5.8° C leichter Regen
Do, 29.02. 1:00 6.3° C bedeckt
Mi, 28.02. 19:00 5.7° C Nebel
Mi, 28.02. 13:00 6.4° C Nebel
Mi, 28.02. 7:00 5.2° C leichte Schauer
Mi, 28.02. 1:00 4.9° C bedeckt
Di, 27.02. 19:00 2.8° C Regen
Ortszeit Temperatur Wetter
Do, 29.02. 14:00 7.1° C Nebel
Do, 29.02. 13:00 7.0° C Nebel
Do, 29.02. 12:00 7.1° C bedeckt
Do, 29.02. 11:00 6.8° C Schauer
Do, 29.02. 10:00 6.2° C leichte Schauer
Do, 29.02. 9:00 6.2° C leichter Regen
Do, 29.02. 8:00 6.0° C leichter Regen
Ortszeit Relative Feuchte Sichtweite
Do, 29.02. 13:00 98% 14 km
Do, 29.02. 7:00 100% 12 km
Do, 29.02. 1:00 72% 19 km
Mi, 28.02. 19:00 89% 20 km
Mi, 28.02. 13:00 97% 18 km
Mi, 28.02. 7:00 99% 17 km
Mi, 28.02. 1:00 100% 13 km
Di, 27.02. 19:00 100% 15 km
Ortszeit Relative Feuchte Sichtweite
Do, 29.02. 14:00 96% 16 km
Do, 29.02. 13:00 98% 14 km
Do, 29.02. 12:00 100% 13 km
Do, 29.02. 11:00 100% 12 km
Do, 29.02. 10:00 100% 45 km
Do, 29.02. 9:00 100% 26 km
Do, 29.02. 8:00 100% 8 km
Ortszeit Niederschlagsmenge Niederschlagsart
Do, 29.02. 13:00 3 l/m2 in 6 Std. -
Do, 29.02. 7:00 6 l/m2 in 12 Std. -
Do, 29.02. 1:00 0.0 l/m2 in 6 Std. -
Mi, 28.02. 19:00 0.0 l/m2 in 12 Std. -
Mi, 28.02. 13:00 0.0 l/m2 in 6 Std. -
Mi, 28.02. 7:00 4 l/m2 in 12 Std. -
Mi, 28.02. 1:00 2 l/m2 in 6 Std. -
Di, 27.02. 19:00 5 l/m2 in 12 Std. -
Ortszeit Niederschlagsmenge Niederschlagsart
Do, 29.02. 14:00 0.0 l/m2 in 1 Std. -
Do, 29.02. 13:00 0.0 l/m2 in 1 Std. -
Do, 29.02. 12:00 0.2 l/m2 in 1 Std. Schneeregen
Do, 29.02. 11:00 0.8 l/m2 in 1 Std. -
Do, 29.02. 10:00 0.2 l/m2 in 1 Std. -
Do, 29.02. 9:00 1.2 l/m2 in 1 Std. -
Do, 29.02. 8:00 0.9 l/m2 in 1 Std. -
Ortszeit Stärke Spitze Richtung
km/h Bft. km/h Grad Sektor
Do, 29.02. 13:00 40 6 58 180° S
Do, 29.02. 7:00 40 6 68 150° SO
Do, 29.02. 1:00 47 6 61 160° S
Mi, 28.02. 19:00 37 5 50 160° S
Mi, 28.02. 13:00 25 4 40 200° S
Mi, 28.02. 7:00 25 4 50 210° SW
Mi, 28.02. 1:00 28 4 57 170° S
Di, 27.02. 19:00 43 6 72 160° S
Ortszeit Stärke Spitze Richtung
km/h Bft. km/h Grad Sektor
Do, 29.02. 14:00 40 6 58 180° S
Do, 29.02. 13:00 40 6 58 180° S
Do, 29.02. 12:00 37 5 54 180° S
Do, 29.02. 11:00 41 6 52 170° S
Do, 29.02. 10:00 32 5 50 150° SO
Do, 29.02. 9:00 37 5 54 160° S
Do, 29.02. 8:00 35 5 52 150° SO
Ortszeit Untergrenze Bedeckung Gattung
total tief tief mittel hoch
Do, 29.02. 13:00 - 8/8 - - - -
Do, 29.02. 7:00 - 8/8 - - - -
Do, 29.02. 1:00 - 8/8 - - - -
Mi, 28.02. 19:00 - 8/8 - - - -
Mi, 28.02. 13:00 - 8/8 - - - -
Mi, 28.02. 7:00 - 8/8 - - - -
Mi, 28.02. 1:00 - 8/8 - - - -
Di, 27.02. 19:00 - 8/8 - - - -
Ortszeit Bedeckungsgrad in Achtel und Wolkenuntergrenze
Do, 29.02. 14:00 8
Do, 29.02. 13:00 8
Do, 29.02. 12:00 8
Do, 29.02. 11:00 8
Do, 29.02. 10:00 8
Do, 29.02. 9:00 8
Do, 29.02. 8:00 8
Ortszeit Luftdruck NN (hPa) Tendenz (hPa in 3 Std.)
Do, 29.02. 13:00 995 + 1,9
Do, 29.02. 7:00 993 - 3,3
Do, 29.02. 1:00 1001 - 3,1
Mi, 28.02. 19:00 1006 - 1,5
Mi, 28.02. 13:00 1009 + 1,1
Mi, 28.02. 7:00 1006 + 0,7
Mi, 28.02. 1:00 1006 - 0,3
Di, 27.02. 19:00 1006 - 0,7
Ortszeit Luftdruck NN (hPa) Tendenz (hPa in 3 Std.)
Do, 29.02. 14:00 996 + 1,9
Do, 29.02. 13:00 995 + 1,9
Do, 29.02. 12:00 995 + 1,9
Do, 29.02. 11:00 994 + 0,6
Do, 29.02. 10:00 993 + 0,4
Do, 29.02. 9:00 993 - 0,4
Do, 29.02. 8:00 993 - 1,2
Ortszeit Schneehöhe (cm)
Do, 29.02. 13:00 -
Do, 29.02. 7:00 -
Do, 29.02. 1:00 -
Mi, 28.02. 19:00 -
Mi, 28.02. 13:00 -
Mi, 28.02. 7:00 -
Mi, 28.02. 1:00 -
Di, 27.02. 19:00 -
Ortszeit Schneehöhe (cm)
Do, 29.02. 14:00 -
Do, 29.02. 13:00 -
Do, 29.02. 12:00 -
Do, 29.02. 11:00 -
Do, 29.02. 10:00 -
Do, 29.02. 9:00 -
Do, 29.02. 8:00 -
Link zu dieser Seite / Seite empfehlen

Das Wetter in ...